This is the latest recevied weather packets stored in our database for station/object CA3EVY-3. If no packets are shown the sender has not sent any weather packets the latest 10 day(s).
| Time | Temp. | Humidity | Pressure | Rain* | Wind** | Luminosity | Snow |
|---|---|---|---|---|---|---|---|
| 1777806004 | 12.78° C | 48% | 918.2 hPa | - | - | - | - |
| 1777805104 | 12.78° C | 48% | 918.2 hPa | - | - | - | - |
| 1777804203 | 12.78° C | 47% | 918.3 hPa | - | - | - | - |
| 1777803303 | 12.78° C | 47% | 918.3 hPa | - | - | - | - |
| 1777802404 | 13.33° C | 46% | 918.3 hPa | - | - | - | - |
| 1777801503 | 13.33° C | 46% | 918.1 hPa | - | - | - | - |
| 1777800604 | 13.33° C | 46% | 918.1 hPa | - | - | - | - |
| 1777799703 | 13.33° C | 46% | 917.9 hPa | - | - | - | - |
| 1777798803 | 13.33° C | 45% | 917.9 hPa | - | - | - | - |
| 1777797904 | 13.33° C | 45% | 918.1 hPa | - | - | - | - |
| 1777797003 | 13.89° C | 44% | 918.3 hPa | - | - | - | - |
| 1777796106 | 13.89° C | 44% | 918.2 hPa | - | - | - | - |
| 1777795204 | 13.89° C | 47% | 918.5 hPa | - | - | - | - |
| 1777794304 | 13.89° C | 47% | 918.7 hPa | - | - | - | - |
| 1777793403 | 13.89° C | 49% | 918.8 hPa | - | - | - | - |
| 1777792505 | 13.89° C | 49% | 919.1 hPa | - | - | - | - |
| 1777791604 | 14.44° C | 48% | 919 hPa | - | - | - | - |
| 1777790703 | 14.44° C | 48% | 918.6 hPa | - | - | - | - |
| 1777789804 | 14.44° C | 47% | 918.8 hPa | - | - | - | - |
| 1777788910 | -17.78° C | 47% | 918.8 hPa | - | - | - | - |
| 1777788004 | 14.44° C | 47% | 918.5 hPa | - | - | - | - |
| 1777787104 | 14.44° C | 47% | 918.1 hPa | - | - | - | - |
| 1777786203 | 15° C | 47% | 918.3 hPa | - | - | - | - |
| 1777785304 | 15° C | 47% | 918.6 hPa | - | - | - | - |
| 1777784404 | 15° C | 46% | 918.7 hPa | - | - | - | - |
* Rain since midnight (hover to see other rain measurements)
** Current wind speed in m/s (hover to see current wind gust speed)